Regional Weather Roundup
Issued by NWS

Home | Current Version | Previous Version | Graphics & Text | Print | Product List | Glossary Off
Versions: 1 2 3 4 5 6 7 8 9 10 11 12 13 14 15 16 17 18 19 20 21 22 23 24 25 26 27 28 29 30 31 32 33 34 35 36 37 38 39 40 41 42 43 44 45 46 47 48 49 50

000
ASUS43 KMKX 262000
RWRWI

WISCONSIN REGIONAL WEATHER ROUNDUP
NATIONAL WEATHER SERVICE MILWAUKEE/SULLIVAN WI
200 PM CST WED NOV 26 2014

NOTE: "FAIR" INDICATES FEW OR NO CLOUDS BELOW 12,000 FEET WITH NO
SIGNIFICANT WEATHER AND/OR OBSTRUCTIONS TO VISIBILITY.

WIZ001-002-006>008-014>016-023>028-262100-
NORTHWEST WISCONSIN

CITY           SKY/WX    TMP DP  RH WIND       PRES   REMARKS
SUPERIOR ARPT  CLOUDY    22  11  64 N12       30.24R WCI  10
ASHLAND        LGT SNOW  24  19  81 NW13      30.20R WCI  12
HAYWARD        CLOUDY    24  18  77 VRB3      30.16S
SIREN          CLOUDY    25  16  70 N8        30.19S WCI  16
CUMBERLAND     CLOUDY    23  18  80 N9        30.16R WCI  13
RICE LAKE      LGT SNOW  25  20  83 N6        30.18R WCI  18
CHETEK         LGT SNOW  24  20  83 NW5       30.17R WCI  19
LADYSMITH      LGT SNOW  25  21  84 N5        30.16R WCI  19
EAU CLAIRE     LGT SNOW  25  18  74 N5        30.17R WCI  19
MENOMONIE      LGT SNOW  26  19  77 N3        30.18R
NEW RICHMOND   LGT SNOW  25  21  85 N7        30.18R WCI  17
OSCEOLA        PTSUNNY   26  17  69 N10       30.22R WCI  16
$$

WIZ003>005-009-010-017-018-262100-
NORTH CENTRAL WISCONSIN

CITY           SKY/WX    TMP DP  RH WIND       PRES   REMARKS
MANITOWISH WTR LGT SNOW  21  17  86 NW6       30.10S WCI  13
ARBOR VITAE    LGT SNOW  23  19  84 NW3       30.10S
WOODRUFF       LGT SNOW  23  19  84 NW3       30.10S
RHINELANDER    LGT SNOW  22  16  78 NW6       30.10S WCI  14
EAGLE RIVER    LGT SNOW  22  16  79 W6        30.09S WCI  14
LAND O LAKES   LGT SNOW  22  19  86 NW3       30.09F
PHILLIPS       LGT SNOW  23  18  83 NW3       30.11S
TOMAHAWK       LGT SNOW  23  17  79 CALM      30.12R
MEDFORD        MIX PCPN  24  17  77 N6        30.11R WCI  16
MERRILL        CLOUDY    25  15  64 NW5       30.11S WCI  20
$$

WIZ029-030-035-036-043>047-262100-
CENTRAL WISCONSIN

CITY           SKY/WX    TMP DP  RH WIND       PRES   REMARKS
WAUSAU         CLOUDY    24  18  77 CALM      30.11S
MOSINEE        PTSUNNY   25  21  86 CALM      30.13S
MARSHFIELD     CLOUDY    26  16  65 CALM      30.12R
STEVENS POINT  PTSUNNY   21  16  81 CALM      30.13F
WAUPACA        CLOUDY    23  20  88 CALM      30.16S FOG
WAUTOMA        NOT AVBL
WISC RAPIDS    MOSUNNY   24  16  71 CALM      30.14F
CAMP DOUGLAS   NOT AVBL
$$

WIZ011>013-019>022-031-037>040-048>050-262100-
NORTHEAST WISCONSIN

CITY           SKY/WX    TMP DP  RH WIND       PRES   REMARKS
ANTIGO         CLOUDY    20  19  95 CALM      30.10S
SHAWANO        CLOUDY    24  19  81 CALM      30.16R
OCONTO         CLOUDY    23  19  83 NW5       30.16S WCI  17
STURGEON BAY   PTSUNNY   25  18  74 W6        30.15S WCI  18
GREEN BAY      PTSUNNY   25  19  78 NW8       30.16R WCI  16
MANITOWOC      NOT AVBL
APPLETON       PTSUNNY   23  19  86 W6        30.14S WCI  16
CLINTONVILLE   CLOUDY    23  18  80 CALM      30.15S
OSHKOSH        PTSUNNY   23  17  78 MISG      30.14S HAZE
$$

WIZ032>034-041-042-053>061-262100-
SOUTHWEST WISCONSIN

CITY           SKY/WX    TMP DP  RH WIND       PRES   REMARKS
LA CROSSE      CLOUDY    29  20  69 NW7       30.15S WCI  22
SPARTA         PTSUNNY   28  18  67 NE5       30.15S WCI  22
VIROQUA        PTSUNNY   27  22  81 N6        30.10R WCI  20
BOSCOBEL       CLOUDY    25  20  81 NE6       30.14R HAZE    WCI  18
PRAIRIE DU CHI CLOUDY    27  21  78 NE7       30.12R WCI  19
PLATTEVILLE    CLOUDY    26  24  91 E9        30.09R WCI  17
$$

WIZ056-057-062-063-064-067-068-262100-
SOUTH CENTRAL WISCONSIN

CITY           SKY/WX    TMP DP  RH WIND       PRES   REMARKS
REEDSBURG      CLOUDY    22  18  84 NE6       30.13S WCI  14
BARABOO/DELLS  CLOUDY    20  19  94 NE6       30.13S FOG     WCI  12
LONE ROCK      NOT AVBL
MINERAL POINT  LGT SNOW  27  25  93 NE9       30.08S WCI  17
MADISON        CLOUDY    22  17  81 N7        30.13R HAZE    WCI  13
MIDDLETON      CLOUDY    24  19  84 N5        30.12S WCI  18
WATERTOWN      PTSUNNY   18  18  98 CALM      30.12S FOG
MONROE         CLOUDY    27  25  93 E3        30.08S
JANESVILLE     NOT AVBL
$$

WIZ051-052-058>065-066-070>072-262100-
SOUTHEAST WISCONSIN

CITY           SKY/WX    TMP DP  RH WIND       PRES   REMARKS
MILWAUKEE      CLOUDY    30  21  69 CALM      30.11F
WAUKESHA       CLOUDY    27  19  74 NW3       30.12S
MILWAUKEE/TIMM CLOUDY    28  19  69 CALM      30.12F
RACINE         CLOUDY    28  22  78 NW3       30.13S
BURLINGTON     PTSUNNY   26  21  83 CALM      30.11S
KENOSHA        CLOUDY    28  23  81 N5        30.11S HAZE    WCI  23
FOND DU LAC    FLURRIES  24  16  71 NW3       30.13F
SHEBOYGAN      PTSUNNY   26  20  77 VRB5      30.13F WCI  20
WEST BEND      PTSUNNY   28  19  69 CALM      30.11F
JUNEAU         PTSUNNY   22  17  83 CALM      30.13S
$$

LSZ147-162-262100-
LAKE SUPERIOR

STATION/POSITION TIME  TEMP    WIND        PRES    WAVE
                       AIR SEA DIR/SP/G            HT/PER
                 (UTC) (F)     (DEG/KT/KT) (MB)    (FT/S)
DEVILS ISLAND    1900   24     350/ 13/ 15 1023.7R
PORT WING        1900   24     340/  7/  9 1023.0R
SAXON HARBOR     1900   25     240/  1/  6 1021.7S
$$

LMZ867-665-643>646-262100-
LAKE MICHIGAN

STATION/POSITION TIME  TEMP    WIND        PRES    WAVE
                       AIR SEA DIR/SP/G            HT/PER
                 (UTC) (F)     (DEG/KT/KT) (MB)    (FT/S)
CHAMBERS ISLAND  1900   24     230/  4/  5 1021.3S
N MID LAKE BUOY  1850   27 42  320/  8/ 12 1021.7F   1/ 3
NORTHPORT PIER   1900   28     320/  3/  8 1021.0S
SISTER BAY       1913           CALM  /  3   N/A
ALGOMA LAKESHORE 1813          320/  6/  9   N/A
KEWAUNEE LAKESHO 1900   25     310/  3/  6 1019.9F
SHEBOYGAN LAKESH 1900   26 34  300/  5/  6 1022.0S
PORT WASHINGTON  1940   30      40/  4/  6 1021.0F
MILWAUKEE LAKESH 1900   29     110/  2/  3   N/A
S MID LAKE BUOY  1850   30 42  180/  8/ 10 1021.0F   1/ 3
KENOSHA   LAKESH 1900   28     360/  2/  4 1020.0F
$$

TC  - TEMPERATURE IN CELSIUS
VSB - VISIBILITY IN STATUTE MILES
WCI - WIND CHILL INDEX
HX  - HEAT INDEX




USA.gov is the U.S. government's official web portal to all federal, state and local government web resources and services.